• în România
  • Lista ţărilor
  • Pe 7 zile
  • Temperatura apei
  • Hartă satelitară
  • Meteo pe hartă
  • Widget-uri
  • user-avatar
    Intrare

    Meteo pe oră la Canillo

    Astăzi, 22 Februarie, Miercuri

    Timp Temperatura Precipitaţii Vânt Presiune Umiditate
    00:00 -1°C° 0 mm 1 m/s 619 mmHg 84%
    01:00 -2°C° 0 mm 1 m/s 618 mmHg 83%
    02:00 -2°C° 0 mm 1 m/s 618 mmHg 82%
    03:00 -2°C° 0 mm 1 m/s 618 mmHg 81%
    04:00 -2°C° 0 mm 1 m/s 618 mmHg 80%
    05:00 -2°C° 0 mm 1 m/s 618 mmHg 79%
    06:00 -2°C° 0 mm 1 m/s 618 mmHg 78%
    07:00 +1°C° 0 mm 1 m/s 619 mmHg 72%
    08:00 +4°C° 0 mm 1 m/s 620 mmHg 66%
    09:00 +6°C° 0 mm 0 m/s 622 mmHg 60%
    10:00 +8°C° 0 mm 1 m/s 622 mmHg 57%
    11:00 +9°C° 0 mm 1 m/s 622 mmHg 54%
    12:00 +10°C° 0 mm 1 m/s 623 mmHg 51%
    13:00 +10°C° 0 mm 1 m/s 622 mmHg 53%
    14:00 +10°C° 0 mm 1 m/s 622 mmHg 55%
    15:00 +10°C° 0 mm 1 m/s 622 mmHg 57%
    16:00 +7°C° 0 mm 1 m/s 620 mmHg 68%
    17:00 +4°C° 0 mm 1 m/s 618 mmHg 78%
    18:00 0°C° 0 mm 1 m/s 617 mmHg 88%
    19:00 0°C° 0 mm 1 m/s 617 mmHg 88%
    20:00 0°C° 0 mm 1 m/s 617 mmHg 87%
    21:00 0°C° 0 mm 1 m/s 617 mmHg 87%
    22:00 0°C° 0 mm 1 m/s 617 mmHg 84%
    23:00 0°C° 0 mm 1 m/s 616 mmHg 82%

    Mâine, 23 Februarie, Joi

    Timp Temperatura Precipitaţii Vânt Presiune Umiditate
    00:00 0°C° 0 mm 1 m/s 616 mmHg 79%
    01:00 0°C° 0 mm 1 m/s 616 mmHg 75%
    02:00 0°C° 0 mm 1 m/s 616 mmHg 71%
    03:00 0°C° 0 mm 1 m/s 616 mmHg 67%
    04:00 -2°C° 0 mm 2 m/s 615 mmHg 64%
    05:00 -2°C° 0 mm 2 m/s 615 mmHg 61%
    06:00 -2°C° 0 mm 2 m/s 615 mmHg 57%
    07:00 +3°C° 0 mm 1 m/s 616 mmHg 55%
    08:00 +5°C° 0 mm 1 m/s 617 mmHg 53%
    09:00 +8°C° 0 mm 1 m/s 618 mmHg 50%
    10:00 +9°C° 0 mm 1 m/s 619 mmHg 48%
    11:00 +9°C° 0 mm 2 m/s 619 mmHg 47%
    12:00 +12°C° 0 mm 2 m/s 620 mmHg 45%
    13:00 +12°C° 0 mm 2 m/s 619 mmHg 47%
    14:00 +10°C° 0 mm 2 m/s 618 mmHg 50%
    15:00 +10°C° 0 mm 2 m/s 618 mmHg 52%
    16:00 +8°C° 0 mm 1 m/s 616 mmHg 63%
    17:00 +5°C° 0 mm 1 m/s 615 mmHg 74%
    18:00 +2°C° 0 mm 1 m/s 614 mmHg 84%
    19:00 +1°C° 0 mm 1 m/s 614 mmHg 86%
    20:00 0°C° 0 mm 0 m/s 614 mmHg 87%
    21:00 0°C° 0 mm 0 m/s 614 mmHg 89%
    22:00 +1°C° 0 mm 1 m/s 614 mmHg 89%
    23:00 +1°C° 0 mm 1 m/s 614 mmHg 90%

    Poimâine, 24 Februarie, Vineri

    Timp Temperatura Precipitaţii Vânt Presiune Umiditate
    00:00 +1°C° 0 mm 1 m/s 614 mmHg 91%
    01:00 +1°C° 0 mm 1 m/s 614 mmHg 90%
    02:00 +1°C° 0 mm 1 m/s 614 mmHg 90%
    03:00 +1°C° 0 mm 1 m/s 614 mmHg 90%
    04:00 -1°C° 0 mm 2 m/s 614 mmHg 91%
    05:00 -1°C° 0 mm 2 m/s 614 mmHg 92%
    06:00 -1°C° 0 mm 2 m/s 614 mmHg 93%
    07:00 +1°C° 0,1 mm 2 m/s 615 mmHg 88%
    08:00 +1°C° 0,1 mm 3 m/s 616 mmHg 84%
    09:00 +2°C° 0,1 mm 3 m/s 616 mmHg 80%
    10:00 +2°C° 0,1 mm 3 m/s 617 mmHg 77%
    11:00 +2°C° 0,1 mm 3 m/s 617 mmHg 74%
    12:00 +1°C° 0,1 mm 4 m/s 617 mmHg 72%
    13:00 +1°C° 0 mm 4 m/s 617 mmHg 69%
    14:00 +1°C° 0 mm 4 m/s 617 mmHg 67%
    15:00 +1°C° 0 mm 4 m/s 616 mmHg 64%
    16:00 -1°C° 0 mm 4 m/s 616 mmHg 70%
    17:00 -1°C° 0 mm 3 m/s 616 mmHg 76%
    18:00 -4°C° 0 mm 3 m/s 616 mmHg 81%
    19:00 -4°C° 0 mm 3 m/s 616 mmHg 81%
    20:00 -5°C° 0 mm 3 m/s 617 mmHg 81%
    21:00 -5°C° 0 mm 3 m/s 617 mmHg 80%
    22:00 -5°C° 0 mm 3 m/s 617 mmHg 79%
    23:00 -5°C° 0 mm 3 m/s 617 mmHg 78%

    25 Februarie, Sâmbătă

    Timp Temperatura Precipitaţii Vânt Presiune Umiditate
    00:00 -6°C° 0 mm 3 m/s 617 mmHg 76%
    01:00 -5°C° 0 mm 2 m/s 617 mmHg 75%
    02:00 -5°C° 0 mm 2 m/s 617 mmHg 74%
    03:00 -5°C° 0 mm 2 m/s 617 mmHg 72%
    04:00 -5°C° 0 mm 2 m/s 617 mmHg 72%
    05:00 -5°C° 0 mm 2 m/s 617 mmHg 71%
    06:00 -5°C° 0 mm 2 m/s 617 mmHg 71%
    07:00 -3°C° 0 mm 2 m/s 618 mmHg 63%
    08:00 +2°C° 0 mm 1 m/s 619 mmHg 56%
    09:00 +4°C° 0 mm 1 m/s 620 mmHg 48%
    10:00 +6°C° 0 mm 1 m/s 621 mmHg 45%
    11:00 +7°C° 0 mm 1 m/s 621 mmHg 42%
    12:00 +9°C° 0 mm 1 m/s 622 mmHg 38%
    13:00 +9°C° 0 mm 1 m/s 621 mmHg 40%
    14:00 +9°C° 0 mm 1 m/s 621 mmHg 43%
    15:00 +9°C° 0 mm 1 m/s 621 mmHg 45%
    16:00 +6°C° 0 mm 1 m/s 620 mmHg 57%
    17:00 +3°C° 0 mm 1 m/s 619 mmHg 70%
    18:00 0°C° 0 mm 1 m/s 618 mmHg 82%
    19:00 0°C° 0 mm 1 m/s 618 mmHg 82%
    20:00 0°C° 0 mm 1 m/s 618 mmHg 83%
    21:00 -1°C° 0 mm 1 m/s 618 mmHg 83%
    22:00 -1°C° 0 mm 1 m/s 618 mmHg 83%
    23:00 -1°C° 0 mm 1 m/s 618 mmHg 83%

    26 Februarie, Duminică

    Timp Temperatura Precipitaţii Vânt Presiune Umiditate
    00:00 -1°C° 0 mm 1 m/s 618 mmHg 83%
    01:00 -1°C° 0 mm 1 m/s 618 mmHg 82%
    02:00 -1°C° 0 mm 1 m/s 618 mmHg 82%
    03:00 -1°C° 0 mm 1 m/s 618 mmHg 82%
    04:00 -2°C° 0 mm 1 m/s 618 mmHg 81%
    05:00 -2°C° 0 mm 1 m/s 617 mmHg 81%
    06:00 -2°C° 0 mm 1 m/s 617 mmHg 80%
    07:00 +1°C° 0 mm 1 m/s 619 mmHg 70%
    08:00 +2°C° 0 mm 0 m/s 620 mmHg 60%
    09:00 +5°C° 0 mm 0 m/s 622 mmHg 50%
    10:00 +6°C° 0 mm 0 m/s 622 mmHg 48%
    11:00 +9°C° 0 mm 1 m/s 622 mmHg 46%
    12:00 +10°C° 0 mm 1 m/s 622 mmHg 44%
    13:00 +10°C° 0 mm 1 m/s 622 mmHg 46%
    14:00 +10°C° 0 mm 1 m/s 621 mmHg 48%
    15:00 +10°C° 0 mm 1 m/s 621 mmHg 50%
    16:00 +7°C° 0 mm 1 m/s 620 mmHg 63%
    17:00 +4°C° 0 mm 1 m/s 618 mmHg 75%
    18:00 +1°C° 0 mm 1 m/s 617 mmHg 88%
    19:00 0°C° 0 mm 1 m/s 617 mmHg 88%
    20:00 0°C° 0 mm 1 m/s 617 mmHg 89%
    21:00 -2°C° 0 mm 0 m/s 617 mmHg 89%
    22:00 -1°C° 0 mm 1 m/s 616 mmHg 88%
    23:00 -1°C° 0 mm 1 m/s 616 mmHg 88%

    27 Februarie, Luni

    Timp Temperatura Precipitaţii Vânt Presiune Umiditate
    00:00 -1°C° 0 mm 1 m/s 616 mmHg 87%
    01:00 -1°C° 0 mm 1 m/s 616 mmHg 85%
    02:00 -1°C° 0 mm 1 m/s 615 mmHg 82%
    03:00 -1°C° 0 mm 1 m/s 615 mmHg 80%
    04:00 -1°C° 0 mm 1 m/s 615 mmHg 78%
    05:00 -1°C° 0 mm 1 m/s 615 mmHg 75%
    06:00 -1°C° 0 mm 1 m/s 615 mmHg 73%
    07:00 +2°C° 0 mm 1 m/s 616 mmHg 67%
    08:00 +3°C° 0 mm 2 m/s 617 mmHg 61%
    09:00 +5°C° 0 mm 2 m/s 618 mmHg 55%
    10:00 +7°C° 0 mm 2 m/s 618 mmHg 53%
    11:00 +8°C° 0 mm 3 m/s 619 mmHg 52%
    12:00 +9°C° 0 mm 3 m/s 619 mmHg 50%
    13:00 +9°C° 0 mm 3 m/s 618 mmHg 52%
    14:00 +9°C° 0 mm 3 m/s 618 mmHg 53%
    15:00 +9°C° 0 mm 3 m/s 617 mmHg 55%
    16:00 +5°C° 0 mm 3 m/s 616 mmHg 66%
    17:00 +4°C° 0 mm 2 m/s 615 mmHg 78%
    18:00 +1°C° 0 mm 2 m/s 614 mmHg 90%
    19:00 +1°C° 0 mm 2 m/s 613 mmHg 89%
    20:00 +1°C° 0 mm 2 m/s 613 mmHg 88%
    21:00 -1°C° 0 mm 2 m/s 613 mmHg 87%
    22:00 -1°C° 0 mm 2 m/s 613 mmHg 88%
    23:00 -1°C° 0 mm 2 m/s 613 mmHg 89%
    Arată mai mult